sat.trackr.live / text

‹ back to catalog

STARLINK-34949

NORAD 65175 · 2025-175B

PAYLOAD ACTIVE UNKNOWN

§ Identity

Operator
Country
US
Launch date
2025-08-14
Launch site
AFWTR
Launch vehicle
Mass (kg)
RCS (m²)

Purposes: comms

External: N2YO · Heavens-Above · Gunter

§ Orbital elements

Epoch: 2026-05-25T02:26:09.496320Z

Period
95.64 min
Inclination
97.4522°
Eccentricity
0.0003041
Mean motion
15.05657852 rev/d
Perigee alt
547.4 km
Apogee alt
551.6 km
Semi-major
6,927.6 km
B*
2.3742e-4
RAAN
17.5268°
Arg perigee
79.2454°
Mean anomaly
280.9115°
Rev number
4,414

§ Raw data

STARLINK-349491 65175U 25175B   26145.10149880  .00003369  00000+0  23742-3 0  99942 65175  97.4522  17.5268 0003041  79.2454 280.9115 15.05657852 44146

JSON: /api/v1/satellites/65175 · /tle

For live sub-satellite position, see the globe view (requires WebGL).

§ Visibility from observer

Set your observer location to see the next 7 days of passes ≥ 10°. The values pass through the URL so the page stays shareable.

No JS? Fill the form by hand. The geolocation button needs JavaScript.